User: anonymous   Login
Location: Breitenfeld
(46.8500°N, 15.6333°E)
Time: 13:36:17
(UTC+00:00)
Language:

Hubble Space Telescope - Orbit

View from above orbital plane
View from above orbital plane
View from above satellite
View from above satellite

Ground track
Ground track

The orbit data is extracted from the following two-line orbital elements,

1 20580U 90037B   21125.95088196  .00000552  00000-0  22476-4 0  9998
2 20580  28.4710 346.3042 0002556 327.8598 173.3270 15.09631409504630
Epoch (UTC): 05 May 2021 22:49:16
Eccentricity: 0.0002556
inclination: 28.4710°
perigee height: 535 km
apogee height: 539 km
right ascension of ascending node: 346.3042°
argument of perigee: 327.8598°
revolutions per day: 15.09631409
mean anomaly at epoch: 173.3270°
orbit number at epoch: 50463

The dashed part of the orbit path shows where the satellite is in the earth's shadow,  

DLR